When you browse on this site, cookies collect data to enhance your experience and personalize the content and advertising you see.
Visit our Privacy Policy to learn more. By continuing to use the site, you agree to this use of cookies and data.

Stündliche Wetter Krasnyy Lug

Heute, 15 Juli, Mittwoch

Zeit Temperatur Niederschläge Wind Luftdruck Luftfeuchtigkeit
00:00 +14°C° 1 mm 4 m/S 736 mmHg 71%
01:00 +13°C° 1 mm 4 m/S 736 mmHg 80%
02:00 +12°C° 0 mm 4 m/S 736 mmHg 88%
03:00 +11°C° 1.1 mm 4 m/S 736 mmHg 90%
04:00 +10°C° 1.1 mm 5 m/S 735 mmHg 93%
05:00 +10°C° 1.1 mm 6 m/S 735 mmHg 95%
06:00 +9°C° 0.3 mm 6 m/S 735 mmHg 95%
07:00 +9°C° 0.3 mm 6 m/S 735 mmHg 95%
08:00 +9°C° 0.3 mm 6 m/S 735 mmHg 95%
09:00 +9°C° 0.5 mm 6 m/S 735 mmHg 95%
10:00 +9°C° 0.5 mm 6 m/S 735 mmHg 95%
11:00 +9°C° 0.5 mm 6 m/S 735 mmHg 95%
12:00 +9°C° 1 mm 6 m/S 735 mmHg 96%
13:00 +9°C° 1 mm 6 m/S 735 mmHg 96%
14:00 +9°C° 1 mm 6 m/S 735 mmHg 96%
15:00 +9°C° 0.8 mm 6 m/S 735 mmHg 96%
16:00 +9°C° 0.8 mm 5 m/S 735 mmHg 96%
17:00 +9°C° 0.8 mm 5 m/S 736 mmHg 97%
18:00 +9°C° 0.3 mm 5 m/S 736 mmHg 96%
19:00 +9°C° 0.3 mm 5 m/S 736 mmHg 96%
20:00 +11°C° 0.3 mm 4 m/S 736 mmHg 96%
21:00 +11°C° 0.2 mm 4 m/S 736 mmHg 97%
22:00 +11°C° 0.2 mm 4 m/S 736 mmHg 97%
23:00 +11°C° 0.2 mm 4 m/S 735 mmHg 97%

Morgen, 16 Juli, Donnerstag

Zeit Temperatur Niederschläge Wind Luftdruck Luftfeuchtigkeit
00:00 +11°C° 0.2 mm 4 m/S 735 mmHg 97%
01:00 +11°C° 0.2 mm 4 m/S 735 mmHg 97%
02:00 +11°C° 0.2 mm 4 m/S 735 mmHg 97%
03:00 +11°C° 0 mm 4 m/S 735 mmHg 96%
04:00 +11°C° 0 mm 4 m/S 735 mmHg 95%
05:00 +11°C° 0 mm 4 m/S 735 mmHg 95%
06:00 +11°C° 0 mm 4 m/S 735 mmHg 92%
07:00 +12°C° 0 mm 4 m/S 736 mmHg 89%
08:00 +12°C° 0 mm 4 m/S 736 mmHg 87%
09:00 +14°C° 0 mm 4 m/S 736 mmHg 80%
10:00 +15°C° 0 mm 4 m/S 736 mmHg 73%
11:00 +17°C° 0 mm 4 m/S 736 mmHg 67%
12:00 +17°C° 0 mm 3 m/S 737 mmHg 70%
13:00 +17°C° 0 mm 3 m/S 737 mmHg 72%
14:00 +16°C° 0 mm 2 m/S 737 mmHg 75%
15:00 +16°C° 0 mm 2 m/S 737 mmHg 77%
16:00 +15°C° 0 mm 2 m/S 737 mmHg 80%
17:00 +15°C° 0 mm 2 m/S 737 mmHg 82%
18:00 +15°C° 0 mm 2 m/S 737 mmHg 83%
19:00 +14°C° 0 mm 1 m/S 738 mmHg 85%
20:00 +14°C° 0 mm 1 m/S 738 mmHg 86%
21:00 +14°C° 0 mm 1 m/S 738 mmHg 88%
22:00 +13°C° 0 mm 1 m/S 738 mmHg 89%
23:00 +13°C° 0 mm 2 m/S 738 mmHg 91%

übermorgen, 17 Juli, Freitag

Zeit Temperatur Niederschläge Wind Luftdruck Luftfeuchtigkeit
00:00 +12°C° 0 mm 2 m/S 738 mmHg 93%
01:00 +12°C° 0 mm 2 m/S 738 mmHg 95%
02:00 +10°C° 0 mm 2 m/S 738 mmHg 97%
03:00 +10°C° 0 mm 2 m/S 739 mmHg 95%
04:00 +12°C° 0 mm 2 m/S 739 mmHg 94%
05:00 +12°C° 0 mm 2 m/S 739 mmHg 92%
06:00 +14°C° 0 mm 2 m/S 739 mmHg 84%
07:00 +15°C° 0 mm 2 m/S 740 mmHg 75%
08:00 +17°C° 0 mm 2 m/S 740 mmHg 66%
09:00 +18°C° 0 mm 2 m/S 740 mmHg 61%
10:00 +19°C° 0 mm 3 m/S 740 mmHg 56%
11:00 +21°C° 0 mm 3 m/S 740 mmHg 51%
12:00 +21°C° 0 mm 3 m/S 740 mmHg 49%
13:00 +22°C° 0 mm 3 m/S 740 mmHg 47%
14:00 +24°C° 0 mm 3 m/S 741 mmHg 45%
15:00 +22°C° 0 mm 3 m/S 741 mmHg 48%
16:00 +22°C° 0 mm 3 m/S 741 mmHg 50%
17:00 +23°C° 0 mm 2 m/S 741 mmHg 52%
18:00 +20°C° 0 mm 2 m/S 741 mmHg 61%
19:00 +19°C° 0 mm 1 m/S 741 mmHg 70%
20:00 +16°C° 0 mm 1 m/S 741 mmHg 79%
21:00 +14°C° 0 mm 0 m/S 741 mmHg 81%
22:00 +13°C° 0 mm 0 m/S 742 mmHg 84%
23:00 +12°C° 0 mm 0 m/S 742 mmHg 86%

18 Juli, Samstag

Zeit Temperatur Niederschläge Wind Luftdruck Luftfeuchtigkeit
00:00 +11°C° 0 mm 0 m/S 742 mmHg 88%
01:00 +12°C° 0 mm 1 m/S 742 mmHg 90%
02:00 +11°C° 0 mm 1 m/S 742 mmHg 92%
03:00 +12°C° 0 mm 1 m/S 743 mmHg 92%
04:00 +11°C° 0 mm 0 m/S 743 mmHg 91%
05:00 +11°C° 0 mm 0 m/S 743 mmHg 91%
06:00 +15°C° 0 mm 1 m/S 743 mmHg 81%
07:00 +18°C° 0 mm 1 m/S 743 mmHg 70%
08:00 +20°C° 0 mm 1 m/S 744 mmHg 59%
09:00 +22°C° 0 mm 1 m/S 744 mmHg 54%
10:00 +23°C° 0 mm 2 m/S 744 mmHg 48%
11:00 +24°C° 0 mm 2 m/S 744 mmHg 43%
12:00 +24°C° 0 mm 2 m/S 744 mmHg 42%
13:00 +25°C° 0 mm 2 m/S 744 mmHg 40%
14:00 +25°C° 0 mm 2 m/S 744 mmHg 39%
15:00 +25°C° 0 mm 2 m/S 744 mmHg 42%
16:00 +25°C° 0 mm 2 m/S 744 mmHg 46%
17:00 +24°C° 0 mm 2 m/S 743 mmHg 49%
18:00 +21°C° 0 mm 2 m/S 744 mmHg 57%
19:00 +20°C° 0 mm 1 m/S 744 mmHg 66%
20:00 +18°C° 0 mm 1 m/S 744 mmHg 74%
21:00 +16°C° 0 mm 1 m/S 744 mmHg 76%
22:00 +15°C° 0 mm 1 m/S 744 mmHg 78%
23:00 +14°C° 0 mm 1 m/S 744 mmHg 80%

19 Juli, Sonntag

Zeit Temperatur Niederschläge Wind Luftdruck Luftfeuchtigkeit
00:00 +14°C° 0 mm 1 m/S 744 mmHg 81%
01:00 +13°C° 0 mm 1 m/S 744 mmHg 82%
02:00 +13°C° 0 mm 1 m/S 744 mmHg 84%
03:00 +13°C° 0 mm 1 m/S 744 mmHg 84%
04:00 +13°C° 0 mm 1 m/S 744 mmHg 85%
05:00 +14°C° 0 mm 1 m/S 744 mmHg 86%
06:00 +16°C° 0 mm 1 m/S 744 mmHg 80%
07:00 +19°C° 0 mm 1 m/S 744 mmHg 75%
08:00 +21°C° 0 mm 1 m/S 744 mmHg 69%
09:00 +22°C° 0.1 mm 1 m/S 744 mmHg 61%
10:00 +24°C° 0.1 mm 2 m/S 744 mmHg 53%
11:00 +25°C° 0.1 mm 2 m/S 744 mmHg 45%
12:00 +25°C° 0 mm 2 m/S 743 mmHg 47%
13:00 +25°C° 0 mm 2 m/S 743 mmHg 49%
14:00 +25°C° 0 mm 1 m/S 743 mmHg 51%
15:00 +25°C° 0 mm 1 m/S 743 mmHg 52%
16:00 +25°C° 0 mm 2 m/S 742 mmHg 53%
17:00 +25°C° 0 mm 2 m/S 742 mmHg 54%
18:00 +23°C° 0.1 mm 2 m/S 742 mmHg 64%
19:00 +21°C° 0.1 mm 1 m/S 742 mmHg 73%
20:00 +19°C° 0.1 mm 1 m/S 742 mmHg 83%
21:00 +18°C° 0 mm 1 m/S 742 mmHg 84%
22:00 +18°C° 0 mm 1 m/S 742 mmHg 86%
23:00 +16°C° 0 mm 1 m/S 741 mmHg 88%

20 Juli, Montag

Zeit Temperatur Niederschläge Wind Luftdruck Luftfeuchtigkeit
00:00 +15°C° 0 mm 1 m/S 741 mmHg 88%
01:00 +15°C° 0 mm 1 m/S 741 mmHg 89%
02:00 +15°C° 0 mm 1 m/S 741 mmHg 90%
03:00 +15°C° 0 mm 1 m/S 741 mmHg 90%
04:00 +15°C° 0 mm 1 m/S 741 mmHg 90%
05:00 +15°C° 0 mm 1 m/S 740 mmHg 91%
06:00 +17°C° 0 mm 2 m/S 740 mmHg 82%
07:00 +19°C° 0 mm 2 m/S 740 mmHg 74%
08:00 +21°C° 0 mm 2 m/S 740 mmHg 65%
09:00 +23°C° 0 mm 2 m/S 740 mmHg 59%
10:00 +25°C° 0 mm 3 m/S 740 mmHg 52%
11:00 +26°C° 0 mm 3 m/S 739 mmHg 46%
12:00 +26°C° 0 mm 3 m/S 739 mmHg 45%
13:00 +27°C° 0 mm 3 m/S 739 mmHg 44%
14:00 +27°C° 0 mm 3 m/S 738 mmHg 43%
15:00 +27°C° 0 mm 3 m/S 738 mmHg 47%
16:00 +26°C° 0 mm 3 m/S 738 mmHg 51%
17:00 +26°C° 0 mm 2 m/S 737 mmHg 55%
18:00 +24°C° 0.2 mm 2 m/S 737 mmHg 64%
19:00 +20°C° 0.2 mm 2 m/S 737 mmHg 74%
20:00 +18°C° 0.2 mm 2 m/S 736 mmHg 84%
21:00 +18°C° 0 mm 2 m/S 736 mmHg 86%
22:00 +17°C° 0 mm 2 m/S 736 mmHg 88%
23:00 +16°C° 0 mm 2 m/S 736 mmHg 89%
Mehr zeigen